Вернуться в каталог

CENTAURI-8

АктивенСвязьSSO
NORAD 62714·PAYLOAD·🇦🇺 Australia

Запущен Jan 14, 2025 с Vandenberg Space Force Base

Loading…

Ближайшие Пролёты (ближайшие 24 часа)

TLE

СвежийSource: Space-Track

Эпоха: Sep 14, 2026, 11:06 UTC

1 62714U 25009DK  26257.46276850  .00001994  00000-0  17264-3 0  9992
2 62714  97.7002 336.3946 0001321 157.4616 202.6665 14.98262955 90847

Отслеживайте CENTAURI-8 в реальном времени с AllMySat

Download on the App Store